Year,Month,Day,Hour,Minute,Value (Times are PST for temperature in C)
2010,12,15,00,00,5.80
2010,12,15,00,01,5.80
2010,12,15,00,02,5.80
2010,12,15,00,03,5.80
2010,12,15,00,04,5.80
2010,12,15,00,05,5.80
2010,12,15,00,06,5.70
2010,12,15,00,07,5.70
2010,12,15,00,08,5.70
2010,12,15,00,09,5.70
2010,12,15,00,10,5.60
2010,12,15,00,11,5.60
2010,12,15,00,12,5.60
2010,12,15,00,13,5.60
2010,12,15,00,14,5.50
2010,12,15,00,15,5.50
2010,12,15,00,16,5.50
2010,12,15,00,17,5.40
2010,12,15,00,18,5.40
2010,12,15,00,19,5.40
2010,12,15,00,20,5.40
2010,12,15,00,21,5.30
2010,12,15,00,22,5.30
2010,12,15,00,23,5.30
2010,12,15,00,24,5.30
2010,12,15,00,25,5.30
2010,12,15,00,26,5.20
2010,12,15,00,27,5.20
2010,12,15,00,28,5.20
2010,12,15,00,29,5.20
2010,12,15,00,30,5.20
2010,12,15,00,31,5.20
2010,12,15,00,32,5.20
2010,12,15,00,33,5.10
2010,12,15,00,34,5.10
2010,12,15,00,35,5.10
2010,12,15,00,36,5.10
2010,12,15,00,37,5.10
2010,12,15,00,38,5.10
2010,12,15,00,39,5.10
2010,12,15,00,40,5.10
2010,12,15,00,41,5.10
2010,12,15,00,42,5.10
2010,12,15,00,43,5.10
2010,12,15,00,44,5.10
2010,12,15,00,45,5.10
2010,12,15,00,46,5.10
2010,12,15,00,47,5.10
2010,12,15,00,48,5.10
2010,12,15,00,49,5.10
2010,12,15,00,50,5.10
2010,12,15,00,51,5.00
2010,12,15,00,52,5.00
2010,12,15,00,53,5.00
2010,12,15,00,54,5.00
2010,12,15,00,55,5.00
2010,12,15,00,56,5.00
2010,12,15,00,57,5.00
2010,12,15,00,58,4.90
2010,12,15,00,59,4.90
2010,12,15,01,00,4.90
2010,12,15,01,01,4.90
2010,12,15,01,02,4.90
2010,12,15,01,03,4.90
2010,12,15,01,04,4.90
2010,12,15,01,05,4.90
2010,12,15,01,06,4.90
2010,12,15,01,07,4.90
2010,12,15,01,08,4.90
2010,12,15,01,09,4.90
2010,12,15,01,10,4.90
2010,12,15,01,11,4.90
2010,12,15,01,12,4.90
2010,12,15,01,13,4.90
2010,12,15,01,14,4.90
2010,12,15,01,15,4.90
2010,12,15,01,16,4.90
2010,12,15,01,17,4.90
2010,12,15,01,18,4.90
2010,12,15,01,19,4.90
2010,12,15,01,20,4.90
2010,12,15,01,21,4.90
2010,12,15,01,22,4.90
2010,12,15,01,23,4.90
2010,12,15,01,24,4.90
2010,12,15,01,25,4.80
2010,12,15,01,26,4.80
2010,12,15,01,27,4.80
2010,12,15,01,28,4.80
2010,12,15,01,29,4.80
2010,12,15,01,30,4.80
2010,12,15,01,31,4.80
2010,12,15,01,32,4.80
2010,12,15,01,33,4.80
2010,12,15,01,34,4.80
2010,12,15,01,35,4.80
2010,12,15,01,36,4.80
2010,12,15,01,37,4.80
2010,12,15,01,38,4.80
2010,12,15,01,39,4.80
2010,12,15,01,40,4.80
2010,12,15,01,41,4.80
2010,12,15,01,42,4.80
2010,12,15,01,43,4.80
2010,12,15,01,44,4.90
2010,12,15,01,45,4.90
2010,12,15,01,46,4.90
2010,12,15,01,47,4.90
2010,12,15,01,48,4.90
2010,12,15,01,49,4.90
2010,12,15,01,50,4.90
2010,12,15,01,51,4.90
2010,12,15,01,52,4.90
2010,12,15,01,53,5.00
2010,12,15,01,54,5.00
2010,12,15,01,55,5.00
2010,12,15,01,56,5.00
2010,12,15,01,57,5.00
2010,12,15,01,58,5.00
2010,12,15,01,59,5.00
2010,12,15,02,00,5.00
2010,12,15,02,01,5.10
2010,12,15,02,02,5.10
2010,12,15,02,03,5.00
2010,12,15,02,04,5.00
2010,12,15,02,05,5.00
2010,12,15,02,06,5.00
2010,12,15,02,07,4.90
2010,12,15,02,08,4.90
2010,12,15,02,09,4.80
2010,12,15,02,10,4.80
2010,12,15,02,11,4.80
2010,12,15,02,12,4.80
2010,12,15,02,13,4.70
2010,12,15,02,14,4.70
2010,12,15,02,15,4.70
2010,12,15,02,16,4.70
2010,12,15,02,17,4.60
2010,12,15,02,18,4.60
2010,12,15,02,19,4.60
2010,12,15,02,20,4.50
2010,12,15,02,21,4.50
2010,12,15,02,22,4.50
2010,12,15,02,23,4.40
2010,12,15,02,24,4.40
2010,12,15,02,25,4.40
2010,12,15,02,26,4.40
2010,12,15,02,27,4.40
2010,12,15,02,28,4.40
2010,12,15,02,29,4.30
2010,12,15,02,30,4.30
2010,12,15,02,31,4.30
2010,12,15,02,32,4.30
2010,12,15,02,33,4.30
2010,12,15,02,34,4.20
2010,12,15,02,35,4.20
2010,12,15,02,36,4.30
2010,12,15,02,37,4.30
2010,12,15,02,38,4.30
2010,12,15,02,39,4.30
2010,12,15,02,40,4.30
2010,12,15,02,41,4.30
2010,12,15,02,42,4.40
2010,12,15,02,43,4.50
2010,12,15,02,44,4.50
2010,12,15,02,45,4.60
2010,12,15,02,46,4.70
2010,12,15,02,47,4.70
2010,12,15,02,48,4.70
2010,12,15,02,49,4.80
2010,12,15,02,50,4.80
2010,12,15,02,51,4.80
2010,12,15,02,52,4.80
2010,12,15,02,53,4.90
2010,12,15,02,54,4.90
2010,12,15,02,55,5.00
2010,12,15,02,56,5.00
2010,12,15,02,57,5.00
2010,12,15,02,58,5.10
2010,12,15,02,59,5.10
2010,12,15,03,00,5.10
2010,12,15,03,01,5.10
2010,12,15,03,02,5.10
2010,12,15,03,03,5.10
2010,12,15,03,04,5.10
2010,12,15,03,05,5.10
2010,12,15,03,06,5.10
2010,12,15,03,07,5.20
2010,12,15,03,08,5.20
2010,12,15,03,09,5.20
2010,12,15,03,10,5.20
2010,12,15,03,11,5.20
2010,12,15,03,12,5.20
2010,12,15,03,13,5.20
2010,12,15,03,14,5.20
2010,12,15,03,15,5.20
2010,12,15,03,16,5.30
2010,12,15,03,17,5.30
2010,12,15,03,18,5.30
2010,12,15,03,19,5.30
2010,12,15,03,20,5.30
2010,12,15,03,21,5.30
2010,12,15,03,22,5.30
2010,12,15,03,23,5.30
2010,12,15,03,24,5.30
2010,12,15,03,25,5.30
2010,12,15,03,26,5.30
2010,12,15,03,27,5.30
2010,12,15,03,28,5.30
2010,12,15,03,29,5.30
2010,12,15,03,30,5.30
2010,12,15,03,31,5.30
2010,12,15,03,32,5.30
2010,12,15,03,33,5.30
2010,12,15,03,34,5.30
2010,12,15,03,35,5.30
2010,12,15,03,36,5.30
2010,12,15,03,37,5.30
2010,12,15,03,38,5.30
2010,12,15,03,39,5.30
2010,12,15,03,40,5.30
2010,12,15,03,41,5.30
2010,12,15,03,42,5.30
2010,12,15,03,43,5.30
2010,12,15,03,44,5.20
2010,12,15,03,45,5.20
2010,12,15,03,46,5.20
2010,12,15,03,47,5.20
2010,12,15,03,48,5.20
2010,12,15,03,49,5.20
2010,12,15,03,50,5.20
2010,12,15,03,51,5.20
2010,12,15,03,52,5.20
2010,12,15,03,53,5.20
2010,12,15,03,54,5.20
2010,12,15,03,55,5.20
2010,12,15,03,56,5.20
2010,12,15,03,57,5.20
2010,12,15,03,58,5.20
2010,12,15,03,59,5.20
2010,12,15,04,00,5.20
2010,12,15,04,01,5.10
2010,12,15,04,02,5.10
2010,12,15,04,03,5.10
2010,12,15,04,04,5.10
2010,12,15,04,05,5.10
2010,12,15,04,06,5.10
2010,12,15,04,07,5.10
2010,12,15,04,08,5.10
2010,12,15,04,09,5.10
2010,12,15,04,10,5.10
2010,12,15,04,11,5.10
2010,12,15,04,12,5.10
2010,12,15,04,13,5.10
2010,12,15,04,14,5.10
2010,12,15,04,15,5.10
2010,12,15,04,16,5.20
2010,12,15,04,17,5.20
2010,12,15,04,18,5.20
2010,12,15,04,19,5.20
2010,12,15,04,20,5.20
2010,12,15,04,21,5.20
2010,12,15,04,22,5.20
2010,12,15,04,23,5.20
2010,12,15,04,24,5.20
2010,12,15,04,25,5.20
2010,12,15,04,26,5.20
2010,12,15,04,27,5.20
2010,12,15,04,28,5.20
2010,12,15,04,29,5.20
2010,12,15,04,30,5.10
2010,12,15,04,31,5.10
2010,12,15,04,32,5.10
2010,12,15,04,33,5.10
2010,12,15,04,34,5.10
2010,12,15,04,35,5.10
2010,12,15,04,36,5.10
2010,12,15,04,37,5.10
2010,12,15,04,38,5.00
2010,12,15,04,39,5.00
2010,12,15,04,40,5.00
2010,12,15,04,41,5.00
2010,12,15,04,42,4.90
2010,12,15,04,43,4.90
2010,12,15,04,44,4.90
2010,12,15,04,45,4.90
2010,12,15,04,46,4.80
2010,12,15,04,47,4.80
2010,12,15,04,48,4.80
2010,12,15,04,49,4.80
2010,12,15,04,50,4.80
2010,12,15,04,51,4.80
2010,12,15,04,52,4.70
2010,12,15,04,53,4.70
2010,12,15,04,54,4.70
2010,12,15,04,55,4.70
2010,12,15,04,56,4.60
2010,12,15,04,57,4.60
2010,12,15,04,58,4.60
2010,12,15,04,59,4.60
2010,12,15,05,00,4.50
2010,12,15,05,01,4.50
2010,12,15,05,02,4.50
2010,12,15,05,03,4.50
2010,12,15,05,04,4.50
2010,12,15,05,05,4.40
2010,12,15,05,06,4.40
2010,12,15,05,07,4.40
2010,12,15,05,08,4.40
2010,12,15,05,09,4.40
2010,12,15,05,10,4.40
2010,12,15,05,11,4.40
2010,12,15,05,12,4.40
2010,12,15,05,13,4.40
2010,12,15,05,14,4.40
2010,12,15,05,15,4.40
2010,12,15,05,16,4.30
2010,12,15,05,17,4.30
2010,12,15,05,18,4.30
2010,12,15,05,19,4.30
2010,12,15,05,20,4.30
2010,12,15,05,21,4.30
2010,12,15,05,22,4.30
2010,12,15,05,23,4.30
2010,12,15,05,24,4.30
2010,12,15,05,25,4.30
2010,12,15,05,26,4.30
2010,12,15,05,27,4.30
2010,12,15,05,28,4.30
2010,12,15,05,29,4.30
2010,12,15,05,30,4.30
2010,12,15,05,31,4.30
2010,12,15,05,32,4.30
2010,12,15,05,33,4.40
2010,12,15,05,34,4.40
2010,12,15,05,35,4.40
2010,12,15,05,36,4.50
2010,12,15,05,37,4.50
2010,12,15,05,38,4.50
2010,12,15,05,39,4.50
2010,12,15,05,40,4.50
2010,12,15,05,41,4.50
2010,12,15,05,42,4.50
2010,12,15,05,43,4.50
2010,12,15,05,44,4.50
2010,12,15,05,45,4.60
2010,12,15,05,46,4.50
2010,12,15,05,47,4.50
2010,12,15,05,48,4.50
2010,12,15,05,49,4.50
2010,12,15,05,50,4.50
2010,12,15,05,51,4.50
2010,12,15,05,52,4.50
2010,12,15,05,53,4.60
2010,12,15,05,54,4.70
2010,12,15,05,55,4.80
2010,12,15,05,56,4.80
2010,12,15,05,57,4.80
2010,12,15,05,58,4.80
2010,12,15,05,59,4.80
2010,12,15,06,00,4.80
2010,12,15,06,01,4.80
2010,12,15,06,02,4.80
2010,12,15,06,03,4.80
2010,12,15,06,04,4.90
2010,12,15,06,05,4.90
2010,12,15,06,06,4.90
2010,12,15,06,07,4.90
2010,12,15,06,08,4.90
2010,12,15,06,09,4.90
2010,12,15,06,10,4.90
2010,12,15,06,11,4.90
2010,12,15,06,12,4.90
2010,12,15,06,13,5.00
2010,12,15,06,14,5.00
2010,12,15,06,15,5.00
2010,12,15,06,16,5.00
2010,12,15,06,17,5.00
2010,12,15,06,18,5.00
2010,12,15,06,19,5.10
2010,12,15,06,20,5.10
2010,12,15,06,21,5.10
2010,12,15,06,22,5.10
2010,12,15,06,23,5.10
2010,12,15,06,24,5.10
2010,12,15,06,25,5.10
2010,12,15,06,26,5.10
2010,12,15,06,27,5.10
2010,12,15,06,28,5.10
2010,12,15,06,29,5.10
2010,12,15,06,30,5.10
2010,12,15,06,31,5.10
2010,12,15,06,32,5.00
2010,12,15,06,33,5.00
2010,12,15,06,34,5.00
2010,12,15,06,35,5.00
2010,12,15,06,36,5.00
2010,12,15,06,37,4.90
2010,12,15,06,38,4.90
2010,12,15,06,39,4.90
2010,12,15,06,40,4.90
2010,12,15,06,41,4.90
2010,12,15,06,42,4.90
2010,12,15,06,43,4.90
2010,12,15,06,44,4.90
2010,12,15,06,45,4.90
2010,12,15,06,46,4.80
2010,12,15,06,47,4.80
2010,12,15,06,48,4.80
2010,12,15,06,49,4.80
2010,12,15,06,50,4.90
2010,12,15,06,51,4.90
2010,12,15,06,52,4.90
2010,12,15,06,53,4.90
2010,12,15,06,54,4.90
2010,12,15,06,55,4.90
2010,12,15,06,56,4.90
2010,12,15,06,57,4.90
2010,12,15,06,58,4.90
2010,12,15,06,59,4.90
2010,12,15,07,00,5.00
2010,12,15,07,01,5.00
2010,12,15,07,02,5.00
2010,12,15,07,03,5.00
2010,12,15,07,04,5.10
2010,12,15,07,05,5.10
2010,12,15,07,06,5.10
2010,12,15,07,07,5.10
2010,12,15,07,08,5.10
2010,12,15,07,09,5.10
2010,12,15,07,10,5.10
2010,12,15,07,11,5.10
2010,12,15,07,12,5.10
2010,12,15,07,13,5.10
2010,12,15,07,14,5.10
2010,12,15,07,15,5.10
2010,12,15,07,16,5.10
2010,12,15,07,17,5.10
2010,12,15,07,18,5.10
2010,12,15,07,19,5.10
2010,12,15,07,20,5.10
2010,12,15,07,21,5.10
2010,12,15,07,22,5.10
2010,12,15,07,23,5.10
2010,12,15,07,24,5.10
2010,12,15,07,25,5.10
2010,12,15,07,26,5.10
2010,12,15,07,27,5.10
2010,12,15,07,28,5.10
2010,12,15,07,29,5.10
2010,12,15,07,30,5.00
2010,12,15,07,31,5.10
2010,12,15,07,32,5.10
2010,12,15,07,33,5.10
2010,12,15,07,34,5.10
2010,12,15,07,35,5.10
2010,12,15,07,36,5.10
2010,12,15,07,37,5.10
2010,12,15,07,38,5.10
2010,12,15,07,39,5.10
2010,12,15,07,40,5.10
2010,12,15,07,41,5.10
2010,12,15,07,42,5.10
2010,12,15,07,43,5.10
2010,12,15,07,44,5.10
2010,12,15,07,45,5.10
2010,12,15,07,46,5.10
2010,12,15,07,47,5.10
2010,12,15,07,48,5.00
2010,12,15,07,49,5.00
2010,12,15,07,50,5.00
2010,12,15,07,51,5.00
2010,12,15,07,52,5.00
2010,12,15,07,53,5.00
2010,12,15,07,54,4.90
2010,12,15,07,55,4.90
2010,12,15,07,56,4.90
2010,12,15,07,57,4.90
2010,12,15,07,58,4.90
2010,12,15,07,59,4.90
2010,12,15,08,00,4.90
2010,12,15,08,01,4.90
2010,12,15,08,02,4.90
2010,12,15,08,03,4.90
2010,12,15,08,04,4.90
2010,12,15,08,05,4.80
2010,12,15,08,06,4.80
2010,12,15,08,07,4.80
2010,12,15,08,08,4.80
2010,12,15,08,09,4.80
2010,12,15,08,10,4.80
2010,12,15,08,11,4.80
2010,12,15,08,12,4.80
2010,12,15,08,13,4.80
2010,12,15,08,14,4.80
2010,12,15,08,15,4.80
2010,12,15,08,16,4.80
2010,12,15,08,17,4.80
2010,12,15,08,18,4.80
2010,12,15,08,19,4.80
2010,12,15,08,20,4.80
2010,12,15,08,21,4.80
2010,12,15,08,22,4.80
2010,12,15,08,23,4.80
2010,12,15,08,24,4.90
2010,12,15,08,25,4.90
2010,12,15,08,26,4.90
2010,12,15,08,27,4.90
2010,12,15,08,28,4.90
2010,12,15,08,29,4.90
2010,12,15,08,30,4.90
2010,12,15,08,31,4.90
2010,12,15,08,32,5.00
2010,12,15,08,33,5.00
2010,12,15,08,34,5.00
2010,12,15,08,35,5.00
2010,12,15,08,36,5.00
2010,12,15,08,37,5.00
2010,12,15,08,38,5.00
2010,12,15,08,39,5.00
2010,12,15,08,40,5.00
2010,12,15,08,41,5.00
2010,12,15,08,42,5.00
2010,12,15,08,43,5.00
2010,12,15,08,44,5.00
2010,12,15,08,45,5.00
2010,12,15,08,46,5.00
2010,12,15,08,47,5.00
2010,12,15,08,48,5.00
2010,12,15,08,49,5.10
2010,12,15,08,50,5.10
2010,12,15,08,51,5.10
2010,12,15,08,52,5.10
2010,12,15,08,53,5.10
2010,12,15,08,54,5.10
2010,12,15,08,55,5.10
2010,12,15,08,56,5.10
2010,12,15,08,57,5.10
2010,12,15,08,58,5.10
2010,12,15,08,59,5.10
2010,12,15,09,00,5.10
2010,12,15,09,01,5.10
2010,12,15,09,02,5.20
2010,12,15,09,03,5.20
2010,12,15,09,04,5.20
2010,12,15,09,05,5.20
2010,12,15,09,06,5.20
2010,12,15,09,07,5.20
2010,12,15,09,08,5.20
2010,12,15,09,09,5.20
2010,12,15,09,10,5.20
2010,12,15,09,11,5.20
2010,12,15,09,12,5.20
2010,12,15,09,13,5.20
2010,12,15,09,14,5.20
2010,12,15,09,15,5.20
2010,12,15,09,16,5.20
2010,12,15,09,17,5.20
2010,12,15,09,18,5.20
2010,12,15,09,19,5.20
2010,12,15,09,20,5.20
2010,12,15,09,21,5.20
2010,12,15,09,22,5.20
2010,12,15,09,23,5.20
2010,12,15,09,24,5.20
2010,12,15,09,25,5.20
2010,12,15,09,26,5.20
2010,12,15,09,27,5.20
2010,12,15,09,28,5.20
2010,12,15,09,29,5.20
2010,12,15,09,30,5.20
2010,12,15,09,31,5.20
2010,12,15,09,32,5.20
2010,12,15,09,33,5.20
2010,12,15,09,34,5.20
2010,12,15,09,35,5.20
2010,12,15,09,36,5.20
2010,12,15,09,37,5.20
2010,12,15,09,38,5.20
2010,12,15,09,39,5.20
2010,12,15,09,40,5.20
2010,12,15,09,41,5.20
2010,12,15,09,42,5.20
2010,12,15,09,43,5.20
2010,12,15,09,44,5.30
2010,12,15,09,45,5.30
2010,12,15,09,46,5.30
2010,12,15,09,47,5.30
2010,12,15,09,48,5.30
2010,12,15,09,49,5.30
2010,12,15,09,50,5.30
2010,12,15,09,51,5.30
2010,12,15,09,52,5.30
2010,12,15,09,53,5.30
2010,12,15,09,54,5.30
2010,12,15,09,55,5.30
2010,12,15,09,56,5.40
2010,12,15,09,57,5.40
2010,12,15,09,58,5.40
2010,12,15,09,59,5.40
2010,12,15,10,00,5.40
2010,12,15,10,01,5.40
2010,12,15,10,02,5.40
2010,12,15,10,03,5.40
2010,12,15,10,04,5.40
2010,12,15,10,05,5.40
2010,12,15,10,06,5.50
2010,12,15,10,07,5.50
2010,12,15,10,08,5.50
2010,12,15,10,09,5.50
2010,12,15,10,10,5.50
2010,12,15,10,11,5.50
2010,12,15,10,12,5.60
2010,12,15,10,13,5.60
2010,12,15,10,14,5.60
2010,12,15,10,15,5.60
2010,12,15,10,16,5.60
2010,12,15,10,17,5.60
2010,12,15,10,18,5.60
2010,12,15,10,19,5.60
2010,12,15,10,20,5.60
2010,12,15,10,21,5.60
2010,12,15,10,22,5.60
2010,12,15,10,23,5.60
2010,12,15,10,24,5.60
2010,12,15,10,25,5.60
2010,12,15,10,26,5.60
2010,12,15,10,27,5.60
2010,12,15,10,28,5.70
2010,12,15,10,29,5.70
2010,12,15,10,30,5.70
2010,12,15,10,31,5.70
2010,12,15,10,32,5.70
2010,12,15,10,33,5.70
2010,12,15,10,34,5.70
2010,12,15,10,35,5.70
2010,12,15,10,36,5.70
2010,12,15,10,37,5.70
2010,12,15,10,38,5.70
2010,12,15,10,39,5.70
2010,12,15,10,40,5.70
2010,12,15,10,41,5.70
2010,12,15,10,42,5.70
2010,12,15,10,43,5.70
2010,12,15,10,44,5.70
2010,12,15,10,45,5.70
2010,12,15,10,46,5.70
2010,12,15,10,47,5.70
2010,12,15,10,48,5.70
2010,12,15,10,49,5.70
2010,12,15,10,50,5.70
2010,12,15,10,51,5.70
2010,12,15,10,52,5.70
2010,12,15,10,53,5.70
2010,12,15,10,54,5.70
2010,12,15,10,55,5.70
2010,12,15,10,56,5.70
2010,12,15,10,57,5.70
2010,12,15,10,58,5.70
2010,12,15,10,59,5.70
2010,12,15,11,00,5.70
2010,12,15,11,01,5.70
2010,12,15,11,02,5.70
2010,12,15,11,03,5.70
2010,12,15,11,04,5.70
2010,12,15,11,05,5.70
2010,12,15,11,06,5.70
2010,12,15,11,07,5.70
2010,12,15,11,08,5.70
2010,12,15,11,09,5.70
2010,12,15,11,10,5.70
2010,12,15,11,11,5.70
2010,12,15,11,12,5.70
2010,12,15,11,13,5.70
2010,12,15,11,14,5.70
2010,12,15,11,15,5.70
2010,12,15,11,16,5.70
2010,12,15,11,17,5.70
2010,12,15,11,18,5.70
2010,12,15,11,19,5.70
2010,12,15,11,20,5.70
2010,12,15,11,21,5.70
2010,12,15,11,22,5.70
2010,12,15,11,23,5.70
2010,12,15,11,24,5.70
2010,12,15,11,25,5.70
2010,12,15,11,26,5.80
2010,12,15,11,27,5.80
2010,12,15,11,28,5.80
2010,12,15,11,29,5.80
2010,12,15,11,30,5.80
2010,12,15,11,31,5.80
2010,12,15,11,32,5.80
2010,12,15,11,33,5.80
2010,12,15,11,34,5.80
2010,12,15,11,35,5.80
2010,12,15,11,36,5.80
2010,12,15,11,37,5.80
2010,12,15,11,38,5.80
2010,12,15,11,39,5.90
2010,12,15,11,40,5.90
2010,12,15,11,41,5.90
2010,12,15,11,42,5.90
2010,12,15,11,43,5.90
2010,12,15,11,44,5.90
2010,12,15,11,45,5.90
2010,12,15,11,46,5.90
2010,12,15,11,47,5.90
2010,12,15,11,48,5.90
2010,12,15,11,49,5.90
2010,12,15,11,50,5.90
2010,12,15,11,51,5.90
2010,12,15,11,52,5.90
2010,12,15,11,53,5.90
2010,12,15,11,54,5.90
2010,12,15,11,55,5.90
2010,12,15,11,56,5.90
2010,12,15,11,57,5.90
2010,12,15,11,58,5.90
2010,12,15,11,59,6.00
2010,12,15,12,00,6.00
2010,12,15,12,01,6.00
2010,12,15,12,02,6.00
2010,12,15,12,03,6.00
2010,12,15,12,04,6.00
2010,12,15,12,05,6.00
2010,12,15,12,06,6.00
2010,12,15,12,07,6.00
2010,12,15,12,08,6.00
2010,12,15,12,09,6.00
2010,12,15,12,10,6.00
2010,12,15,12,11,6.00
2010,12,15,12,12,6.00
2010,12,15,12,13,6.00
2010,12,15,12,14,6.00
2010,12,15,12,15,6.00
2010,12,15,12,16,6.00
2010,12,15,12,17,6.00
2010,12,15,12,18,6.00
2010,12,15,12,19,6.00
2010,12,15,12,20,6.00
2010,12,15,12,21,6.00
2010,12,15,12,22,6.00
2010,12,15,12,23,6.00
2010,12,15,12,24,6.00
2010,12,15,12,25,6.00
2010,12,15,12,26,6.00
2010,12,15,12,27,6.10
2010,12,15,12,28,6.10
2010,12,15,12,29,6.10
2010,12,15,12,30,6.10
2010,12,15,12,31,6.10
2010,12,15,12,32,6.00
2010,12,15,12,33,6.00
2010,12,15,12,34,6.00
2010,12,15,12,35,6.10
2010,12,15,12,36,6.00
2010,12,15,12,37,6.00
2010,12,15,12,38,6.10
2010,12,15,12,39,6.00
2010,12,15,12,40,6.00
2010,12,15,12,41,6.00
2010,12,15,12,42,6.00
2010,12,15,12,43,6.00
2010,12,15,12,44,6.00
2010,12,15,12,45,6.00
2010,12,15,12,46,6.00
2010,12,15,12,47,6.00
2010,12,15,12,48,6.00
2010,12,15,12,49,6.00
2010,12,15,12,50,6.00
2010,12,15,12,51,6.00
2010,12,15,12,52,6.00
2010,12,15,12,53,6.10
2010,12,15,12,54,6.10
2010,12,15,12,55,6.10
2010,12,15,12,56,6.10
2010,12,15,12,57,6.10
2010,12,15,12,58,6.10
2010,12,15,12,59,6.10
2010,12,15,13,00,6.10
2010,12,15,13,01,6.10
2010,12,15,13,02,6.10
2010,12,15,13,03,6.20
2010,12,15,13,04,6.20
2010,12,15,13,05,6.20
2010,12,15,13,06,6.20
2010,12,15,13,07,6.20
2010,12,15,13,08,6.20
2010,12,15,13,09,6.20
2010,12,15,13,10,6.20
2010,12,15,13,11,6.20
2010,12,15,13,12,6.20
2010,12,15,13,13,6.20
2010,12,15,13,14,6.30
2010,12,15,13,15,6.30
2010,12,15,13,16,6.30
2010,12,15,13,17,6.30
2010,12,15,13,18,6.30
2010,12,15,13,19,6.30
2010,12,15,13,20,6.30
2010,12,15,13,21,6.40
2010,12,15,13,22,6.40
2010,12,15,13,23,6.40
2010,12,15,13,24,6.40
2010,12,15,13,25,6.40
2010,12,15,13,26,6.40
2010,12,15,13,27,6.40
2010,12,15,13,28,6.40
2010,12,15,13,29,6.40
2010,12,15,13,30,6.40
2010,12,15,13,31,6.40
2010,12,15,13,32,6.40
2010,12,15,13,33,6.40
2010,12,15,13,34,6.40
2010,12,15,13,35,6.50
2010,12,15,13,36,6.50
2010,12,15,13,37,6.40
2010,12,15,13,38,6.50
2010,12,15,13,39,6.50
2010,12,15,13,40,6.50
2010,12,15,13,41,6.50
2010,12,15,13,42,6.50
2010,12,15,13,43,6.50
2010,12,15,13,44,6.50
2010,12,15,13,45,6.50
2010,12,15,13,46,6.50
2010,12,15,13,47,6.50
2010,12,15,13,48,6.50
2010,12,15,13,49,6.60
2010,12,15,13,50,6.60
2010,12,15,13,51,6.60
2010,12,15,13,52,6.50
2010,12,15,13,53,6.60
2010,12,15,13,54,6.60
2010,12,15,13,55,6.60
2010,12,15,13,56,6.60
2010,12,15,13,57,6.70
2010,12,15,13,58,6.70
2010,12,15,13,59,6.70
2010,12,15,14,00,6.70
2010,12,15,14,01,6.70
2010,12,15,14,02,6.70
2010,12,15,14,03,6.70
2010,12,15,14,04,6.60
2010,12,15,14,05,6.60
2010,12,15,14,06,6.60
2010,12,15,14,07,6.50
2010,12,15,14,08,6.50
2010,12,15,14,09,6.50
2010,12,15,14,10,6.50
2010,12,15,14,11,6.40
2010,12,15,14,12,6.40
2010,12,15,14,13,6.40
2010,12,15,14,14,6.40
2010,12,15,14,15,6.40
2010,12,15,14,16,6.40
2010,12,15,14,17,6.40
2010,12,15,14,18,6.40
2010,12,15,14,19,6.30
2010,12,15,14,20,6.30
2010,12,15,14,21,6.30
2010,12,15,14,22,6.30
2010,12,15,14,23,6.30
2010,12,15,14,24,6.30
2010,12,15,14,25,6.20
2010,12,15,14,26,6.20
2010,12,15,14,27,6.20
2010,12,15,14,28,6.20
2010,12,15,14,29,6.20
2010,12,15,14,30,6.10
2010,12,15,14,31,6.10
2010,12,15,14,32,6.10
2010,12,15,14,33,6.10
2010,12,15,14,34,6.10
2010,12,15,14,35,6.10
2010,12,15,14,36,6.10
2010,12,15,14,37,6.00
2010,12,15,14,38,6.00
2010,12,15,14,39,6.00
2010,12,15,14,40,6.00
2010,12,15,14,41,6.00
2010,12,15,14,42,6.00
2010,12,15,14,43,6.00
2010,12,15,14,44,6.00
2010,12,15,14,45,6.00
2010,12,15,14,46,6.00
2010,12,15,14,47,6.00
2010,12,15,14,48,6.00
2010,12,15,14,49,6.00
2010,12,15,14,50,6.00
2010,12,15,14,51,6.00
2010,12,15,14,52,6.00
2010,12,15,14,53,6.00
2010,12,15,14,54,6.10
2010,12,15,14,55,6.10
2010,12,15,14,56,6.10
2010,12,15,14,57,6.10
2010,12,15,14,58,6.10
2010,12,15,14,59,6.10
2010,12,15,15,00,6.20
2010,12,15,15,01,6.20
2010,12,15,15,02,6.20
2010,12,15,15,03,6.20
2010,12,15,15,04,6.20
2010,12,15,15,05,6.20
2010,12,15,15,06,6.20
2010,12,15,15,07,6.20
2010,12,15,15,08,6.20
2010,12,15,15,09,6.20
2010,12,15,15,10,6.20
2010,12,15,15,11,6.20
2010,12,15,15,12,6.20
2010,12,15,15,13,6.20
2010,12,15,15,14,6.30
2010,12,15,15,15,6.30
2010,12,15,15,16,6.30
2010,12,15,15,17,6.30
2010,12,15,15,18,6.30
2010,12,15,15,19,6.30
2010,12,15,15,20,6.30
2010,12,15,15,21,6.30
2010,12,15,15,22,6.30
2010,12,15,15,23,6.30
2010,12,15,15,24,6.30
2010,12,15,15,25,6.30
2010,12,15,15,26,6.30
2010,12,15,15,27,6.30
2010,12,15,15,28,6.30
2010,12,15,15,29,6.30
2010,12,15,15,30,6.30
2010,12,15,15,31,6.30
2010,12,15,15,32,6.30
2010,12,15,15,33,6.30
2010,12,15,15,34,6.30
2010,12,15,15,35,6.30
2010,12,15,15,36,6.30
2010,12,15,15,37,6.30
2010,12,15,15,38,6.30
2010,12,15,15,39,6.30
2010,12,15,15,40,6.30
2010,12,15,15,41,6.30
2010,12,15,15,42,6.30
2010,12,15,15,43,6.30
2010,12,15,15,44,6.40
2010,12,15,15,45,6.40
2010,12,15,15,46,6.40
2010,12,15,15,47,6.40
2010,12,15,15,48,6.40
2010,12,15,15,49,6.40
2010,12,15,15,50,6.40
2010,12,15,15,51,6.40
2010,12,15,15,52,6.40
2010,12,15,15,53,6.40
2010,12,15,15,54,6.40
2010,12,15,15,55,6.40
2010,12,15,15,56,6.40
2010,12,15,15,57,6.40
2010,12,15,15,58,6.30
2010,12,15,15,59,6.30
2010,12,15,16,00,6.30
2010,12,15,16,01,6.30
2010,12,15,16,02,6.30
2010,12,15,16,03,6.30
2010,12,15,16,04,6.30
2010,12,15,16,05,6.30
2010,12,15,16,06,6.30
2010,12,15,16,07,6.30
2010,12,15,16,08,6.30
2010,12,15,16,09,6.30
2010,12,15,16,10,6.30
2010,12,15,16,11,6.30
2010,12,15,16,12,6.30
2010,12,15,16,13,6.30
2010,12,15,16,14,6.30
2010,12,15,16,15,6.30
2010,12,15,16,16,6.30
2010,12,15,16,17,6.30
2010,12,15,16,18,6.30
2010,12,15,16,19,6.30
2010,12,15,16,20,6.30
2010,12,15,16,21,6.30
2010,12,15,16,22,6.30
2010,12,15,16,23,6.30
2010,12,15,16,24,6.30
2010,12,15,16,25,6.30
2010,12,15,16,26,6.30
2010,12,15,16,27,6.30
2010,12,15,16,28,6.30
2010,12,15,16,29,6.30
2010,12,15,16,30,6.30
2010,12,15,16,31,6.30
2010,12,15,16,32,6.30
2010,12,15,16,33,6.30
2010,12,15,16,34,6.30
2010,12,15,16,35,6.30
2010,12,15,16,36,6.30
2010,12,15,16,37,6.30
2010,12,15,16,38,6.30
2010,12,15,16,39,6.30
2010,12,15,16,40,6.30
2010,12,15,16,41,6.30
2010,12,15,16,42,6.30
2010,12,15,16,43,6.30
2010,12,15,16,44,6.30
2010,12,15,16,45,6.30
2010,12,15,16,46,6.30
2010,12,15,16,47,6.30
2010,12,15,16,48,6.30
2010,12,15,16,49,6.30
2010,12,15,16,50,6.30
2010,12,15,16,51,6.30
2010,12,15,16,52,6.30
2010,12,15,16,53,6.30
2010,12,15,16,54,6.20
2010,12,15,16,55,6.20
2010,12,15,16,56,6.20
2010,12,15,16,57,6.20
2010,12,15,16,58,6.20
2010,12,15,16,59,6.20
2010,12,15,17,00,6.20
2010,12,15,17,01,6.20
2010,12,15,17,02,6.20
2010,12,15,17,03,6.20
2010,12,15,17,04,6.20
2010,12,15,17,05,6.20
2010,12,15,17,06,6.20
2010,12,15,17,07,6.20
2010,12,15,17,08,6.20
2010,12,15,17,09,6.20
2010,12,15,17,10,6.20
2010,12,15,17,11,6.20
2010,12,15,17,12,6.20
2010,12,15,17,13,6.20
2010,12,15,17,14,6.20
2010,12,15,17,15,6.20
2010,12,15,17,16,6.20
2010,12,15,17,17,6.20
2010,12,15,17,18,6.20
2010,12,15,17,19,6.20
2010,12,15,17,20,6.10
2010,12,15,17,21,6.20
2010,12,15,17,22,6.20
2010,12,15,17,23,6.20
2010,12,15,17,24,6.20
2010,12,15,17,25,6.20
2010,12,15,17,26,6.20
2010,12,15,17,27,6.20
2010,12,15,17,28,6.20
2010,12,15,17,29,6.20
2010,12,15,17,30,6.20
2010,12,15,17,31,6.20
2010,12,15,17,32,6.20
2010,12,15,17,33,6.20
2010,12,15,17,34,6.20
2010,12,15,17,35,6.20
2010,12,15,17,36,6.20
2010,12,15,17,37,6.20
2010,12,15,17,38,6.20
2010,12,15,17,39,6.20
2010,12,15,17,40,6.10
2010,12,15,17,41,6.10
2010,12,15,17,42,6.10
2010,12,15,17,43,6.10
2010,12,15,17,44,6.10
2010,12,15,17,45,6.10
2010,12,15,17,46,6.00
2010,12,15,17,47,6.00
2010,12,15,17,48,6.00
2010,12,15,17,49,6.00
2010,12,15,17,50,5.90
2010,12,15,17,51,5.90
2010,12,15,17,52,5.90
2010,12,15,17,53,5.90
2010,12,15,17,54,5.90
2010,12,15,17,55,5.90
2010,12,15,17,56,5.80
2010,12,15,17,57,5.80
2010,12,15,17,58,5.80
2010,12,15,17,59,5.80
2010,12,15,18,00,5.80
2010,12,15,18,01,5.80
2010,12,15,18,02,5.80
2010,12,15,18,03,5.80
2010,12,15,18,04,5.80
2010,12,15,18,05,5.80
2010,12,15,18,06,5.80